sat.trackr.live / text

‹ back to catalog

ONEWEB-0007

NORAD 44060 · 2019-010D

PAYLOAD ACTIVE UNKNOWN

§ Identity

Operator
Country
UK
Launch date
2019-02-27
Launch site
FRGUI
Launch vehicle
Mass (kg)
RCS (m²)

Purposes: comms

External: N2YO · Heavens-Above · Gunter

§ Orbital elements

Epoch: 2026-09-03T10:47:52.145376Z

Period
109.46 min
Inclination
87.8959°
Eccentricity
0.0002270
Mean motion
13.15547261 rev/d
Perigee alt
1,200.1 km
Apogee alt
1,203.5 km
Semi-major
7,579.9 km
B*
4.6754e-4
RAAN
243.6148°
Arg perigee
85.8999°
Mean anomaly
274.2390°
Rev number
36,166

§ Raw data

ONEWEB-00071 44060U 19010D   26246.44990909  .00000189  00000+0  46754-3 0  99952 44060  87.8959 243.6148 0002270  85.8999 274.2390 13.15547261361663

JSON: /api/v1/satellites/44060 · /tle

For live sub-satellite position, see the globe view (requires WebGL).

§ Visibility from observer

Set your observer location to see the next 7 days of passes ≥ 10°. The values pass through the URL so the page stays shareable.

No JS? Fill the form by hand. The geolocation button needs JavaScript.